User: anonymous   Login
Location: Unspecified
(40.7945°N, 0.0000°E)
Time: 18:19:43
(UTC+00:00)
Language:

UWE-3 - Orbit

View from above orbital plane
View from above orbital plane
View from above satellite
View from above satellite

Ground track
Ground track

The orbit data is extracted from the following two-line orbital elements,

1 39446U 13066AG  20226.73120012  .00000142  00000-0  25279-4 0  9996
2 39446  97.6015 213.2462 0071216 122.2105 238.6038 14.78570452361627
Epoch (UTC): 13 August 2020 17:32:55
Eccentricity: 0.0071216
inclination: 97.6015°
perigee height: 584 km
apogee height: 684 km
right ascension of ascending node: 213.2462°
argument of perigee: 122.2105°
revolutions per day: 14.78570452
mean anomaly at epoch: 238.6038°
orbit number at epoch: 36162

The dashed part of the orbit path shows where the satellite is in the earth's shadow,  

DLR